Time,TemperatureF,DewpointF,PressureIn,WindDirection,WindDirectionDegrees,WindSpeedMPH,WindSpeedGustMPH,Humidity,HourlyPrecipIn,Conditions,Clouds,dailyrainin,SoftwareType,DateUTC
2013-09-08 00:04:00,60.0,56.1,29.79,South,183,0.0,11.0,87,0.00,,,0.00,WeatherTracker,2013-09-08 07:04:00,
2013-09-08 00:09:00,59.9,55.7,29.79,SSW,211,4.0,6.0,86,0.00,,,0.00,WeatherTracker,2013-09-08 07:09:00,
2013-09-08 00:14:00,60.0,55.8,29.79,SW,219,1.0,6.0,86,0.00,,,0.00,WeatherTracker,2013-09-08 07:14:00,
2013-09-08 00:19:00,60.2,56.0,29.79,SW,219,2.0,6.0,86,0.00,,,0.00,WeatherTracker,2013-09-08 07:19:00,
2013-09-08 00:24:00,60.3,56.4,29.79,SW,222,5.0,7.0,87,0.00,,,0.00,WeatherTracker,2013-09-08 07:24:00,
2013-09-08 00:29:00,60.3,56.4,29.79,SSW,203,7.0,7.0,87,0.00,,,0.00,WeatherTracker,2013-09-08 07:29:00,
2013-09-08 00:34:00,60.3,56.4,29.79,East,95,5.0,10.0,87,0.00,,,0.00,WeatherTracker,2013-09-08 07:34:00,
2013-09-08 00:39:00,60.1,56.2,29.79,NE,52,4.0,10.0,87,0.00,,,0.00,WeatherTracker,2013-09-08 07:39:00,
2013-09-08 00:44:00,60.2,56.6,29.79,NE,44,5.0,10.0,88,0.00,,,0.00,WeatherTracker,2013-09-08 07:44:00,
2013-09-08 00:49:00,60.1,56.5,29.79,NE,41,3.0,10.0,88,0.00,,,0.00,WeatherTracker,2013-09-08 07:49:00,
2013-09-08 00:54:00,59.9,56.3,29.79,NE,41,1.0,7.0,88,0.00,,,0.00,WeatherTracker,2013-09-08 07:54:00,
2013-09-08 00:59:00,59.8,56.2,29.79,NE,44,3.0,5.0,88,0.00,,,0.00,WeatherTracker,2013-09-08 07:59:00,
2013-09-08 01:04:00,60.1,56.5,29.79,East,96,9.0,9.0,88,0.00,,,0.00,WeatherTracker,2013-09-08 08:04:00,
2013-09-08 01:10:00,59.8,56.2,29.79,ENE,59,6.0,11.0,88,0.00,,,0.00,WeatherTracker,2013-09-08 08:10:00,
2013-09-08 01:15:00,60.1,56.5,29.79,NE,42,7.0,11.0,88,0.00,,,0.00,WeatherTracker,2013-09-08 08:15:00,
2013-09-08 01:20:00,60.2,56.6,29.79,NE,56,8.0,11.0,88,0.00,,,0.00,WeatherTracker,2013-09-08 08:20:00,
2013-09-08 01:25:00,60.1,56.5,29.79,ENE,59,8.0,10.0,88,0.00,,,0.00,WeatherTracker,2013-09-08 08:25:00,
2013-09-08 01:30:00,60.0,56.4,29.79,ENE,63,4.0,10.0,88,0.00,,,0.00,WeatherTracker,2013-09-08 08:30:00,
2013-09-08 01:35:00,60.0,56.7,29.79,East,100,4.0,10.0,89,0.00,,,0.00,WeatherTracker,2013-09-08 08:35:00,
2013-09-08 01:40:00,60.1,56.8,29.79,East,98,5.0,6.0,89,0.00,,,0.00,WeatherTracker,2013-09-08 08:40:00,
2013-09-08 01:45:00,59.9,56.3,29.78,East,96,6.0,6.0,88,0.00,,,0.00,WeatherTracker,2013-09-08 08:45:00,
2013-09-08 01:50:00,59.8,56.5,29.78,ENE,58,6.0,8.0,89,0.00,,,0.00,WeatherTracker,2013-09-08 08:50:00,
2013-09-08 01:55:00,59.9,56.6,29.78,ENE,60,6.0,9.0,89,0.00,,,0.00,WeatherTracker,2013-09-08 08:55:00,
2013-09-08 02:00:00,59.8,56.5,29.79,NE,53,8.0,10.0,89,0.00,,,0.00,WeatherTracker,2013-09-08 09:00:00,
2013-09-08 02:05:00,59.7,56.8,29.79,NE,44,6.0,10.0,90,0.00,,,0.00,WeatherTracker,2013-09-08 09:05:00,
2013-09-08 02:10:00,59.8,56.9,29.79,NE,53,7.0,9.0,90,0.00,,,0.00,WeatherTracker,2013-09-08 09:10:00,
2013-09-08 02:15:00,59.7,56.8,29.79,NE,48,5.0,9.0,90,0.00,,,0.00,WeatherTracker,2013-09-08 09:15:00,
2013-09-08 02:20:00,59.6,56.7,29.79,NNE,31,2.0,8.0,90,0.00,,,0.00,WeatherTracker,2013-09-08 09:20:00,
2013-09-08 02:25:00,59.4,56.2,29.79,NE,34,3.0,6.0,89,0.00,,,0.00,WeatherTracker,2013-09-08 09:25:00,
2013-09-08 02:30:00,59.4,56.5,29.79,NE,34,4.0,7.0,90,0.00,,,0.00,WeatherTracker,2013-09-08 09:30:00,
2013-09-08 02:35:00,59.5,56.6,29.79,NE,34,4.0,7.0,90,0.00,,,0.00,WeatherTracker,2013-09-08 09:35:00,
2013-09-08 02:40:00,59.4,56.5,29.79,NE,34,4.0,6.0,90,0.00,,,0.00,WeatherTracker,2013-09-08 09:40:00,
2013-09-08 02:45:00,59.4,56.5,29.79,NE,34,3.0,6.0,90,0.00,,,0.00,WeatherTracker,2013-09-08 09:45:00,
2013-09-08 02:51:00,59.4,56.5,29.79,NE,34,4.0,6.0,90,0.00,,,0.00,WeatherTracker,2013-09-08 09:51:00,
2013-09-08 02:56:00,59.4,56.5,29.79,NE,46,3.0,6.0,90,0.00,,,0.00,WeatherTracker,2013-09-08 09:56:00,
2013-09-08 03:01:00,59.3,56.4,29.79,East,94,1.0,6.0,90,0.00,,,0.00,WeatherTracker,2013-09-08 10:01:00,
2013-09-08 03:06:00,59.3,56.7,29.79,East,98,4.0,6.0,91,0.00,,,0.00,WeatherTracker,2013-09-08 10:06:00,
2013-09-08 03:11:00,59.0,56.1,29.79,SE,142,5.0,5.0,90,0.00,,,0.00,WeatherTracker,2013-09-08 10:11:00,
2013-09-08 03:16:00,58.7,55.8,29.79,SSE,148,3.0,6.0,90,0.00,,,0.00,WeatherTracker,2013-09-08 10:16:00,
2013-09-08 03:21:00,58.5,55.6,29.79,SSE,148,0.0,6.0,90,0.00,,,0.00,WeatherTracker,2013-09-08 10:21:00,
2013-09-08 03:26:00,58.5,55.9,29.79,SE,146,3.0,3.0,91,0.00,,,0.00,WeatherTracker,2013-09-08 10:26:00,
2013-09-08 03:31:00,58.4,55.8,29.79,SSE,153,3.0,5.0,91,0.00,,,0.00,WeatherTracker,2013-09-08 10:31:00,
2013-09-08 03:36:00,58.2,55.3,29.79,SSE,152,1.0,5.0,90,0.00,,,0.00,WeatherTracker,2013-09-08 10:36:00,
2013-09-08 03:41:00,58.1,55.5,29.79,SSE,153,2.0,4.0,91,0.00,,,0.00,WeatherTracker,2013-09-08 10:41:00,
2013-09-08 03:46:00,57.9,55.3,29.79,WNW,289,2.0,5.0,91,0.00,,,0.00,WeatherTracker,2013-09-08 10:46:00,
2013-09-08 03:51:00,57.9,55.3,29.79,WNW,288,0.0,5.0,91,0.00,,,0.00,WeatherTracker,2013-09-08 10:51:00,
2013-09-08 03:56:00,58.0,55.4,29.79,WNW,289,0.0,4.0,91,0.00,,,0.00,WeatherTracker,2013-09-08 10:56:00,
2013-09-08 04:01:00,58.1,55.5,29.79,WNW,289,1.0,2.0,91,0.00,,,0.00,WeatherTracker,2013-09-08 11:01:00,
2013-09-08 04:07:00,58.1,55.5,29.79,WNW,289,3.0,3.0,91,0.00,,,0.00,WeatherTracker,2013-09-08 11:07:00,
2013-09-08 04:12:00,58.2,55.6,29.79,NW,307,4.0,5.0,91,0.00,,,0.00,WeatherTracker,2013-09-08 11:12:00,
2013-09-08 04:17:00,58.1,55.5,29.79,NW,314,1.0,5.0,91,0.00,,,0.00,WeatherTracker,2013-09-08 11:17:00,
2013-09-08 04:22:00,58.1,55.5,29.79,NW,314,1.0,5.0,91,0.00,,,0.00,WeatherTracker,2013-09-08 11:22:00,
2013-09-08 04:27:00,58.2,55.6,29.79,NW,314,2.0,3.0,91,0.00,,,0.00,WeatherTracker,2013-09-08 11:27:00,
2013-09-08 04:32:00,58.2,55.9,29.79,NW,314,0.0,4.0,92,0.00,,,0.00,WeatherTracker,2013-09-08 11:32:00,
2013-09-08 04:37:00,58.1,55.8,29.79,NW,314,1.0,4.0,92,0.00,,,0.00,WeatherTracker,2013-09-08 11:37:00,
2013-09-08 04:42:00,58.1,55.8,29.79,NW,314,1.0,3.0,92,0.00,,,0.00,WeatherTracker,2013-09-08 11:42:00,
2013-09-08 04:47:00,58.3,56.0,29.79,NW,314,0.0,3.0,92,0.00,,,0.00,WeatherTracker,2013-09-08 11:47:00,
2013-09-08 04:52:00,58.4,56.1,29.79,NW,314,2.0,3.0,92,0.00,,,0.00,WeatherTracker,2013-09-08 11:52:00,
2013-09-08 04:57:00,58.4,56.1,29.79,NW,314,1.0,3.0,92,0.00,,,0.00,WeatherTracker,2013-09-08 11:57:00,
2013-09-08 05:02:00,58.4,56.1,29.79,NW,314,0.0,3.0,92,0.00,,,0.00,WeatherTracker,2013-09-08 12:02:00,
2013-09-08 05:07:00,58.5,56.2,29.79,NW,314,3.0,3.0,92,0.00,,,0.00,WeatherTracker,2013-09-08 12:07:00,
2013-09-08 05:12:00,58.5,56.2,29.79,NW,315,0.0,4.0,92,0.00,,,0.00,WeatherTracker,2013-09-08 12:12:00,
2013-09-08 05:17:00,58.4,56.1,29.79,NW,314,3.0,4.0,92,0.00,,,0.00,WeatherTracker,2013-09-08 12:17:00,
2013-09-08 05:22:00,58.2,55.9,29.79,WNW,302,5.0,5.0,92,0.00,,,0.00,WeatherTracker,2013-09-08 12:22:00,
2013-09-08 05:28:00,58.1,55.8,29.79,SW,219,2.0,7.0,92,0.00,,,0.00,WeatherTracker,2013-09-08 12:28:00,
2013-09-08 05:33:00,58.0,55.7,29.79,SW,219,0.0,7.0,92,0.00,,,0.00,WeatherTracker,2013-09-08 12:33:00,
2013-09-08 05:38:00,58.1,55.8,29.79,SW,218,0.0,4.0,92,0.00,,,0.00,WeatherTracker,2013-09-08 12:38:00,
2013-09-08 05:43:00,58.1,55.8,29.79,SW,218,0.0,1.0,92,0.00,,,0.00,WeatherTracker,2013-09-08 12:43:00,
2013-09-08 05:48:00,58.1,55.8,29.79,SW,218,2.0,3.0,92,0.00,,,0.00,WeatherTracker,2013-09-08 12:48:00,
2013-09-08 05:53:00,58.1,55.8,29.79,SW,219,1.0,3.0,92,0.00,,,0.00,WeatherTracker,2013-09-08 12:53:00,
2013-09-08 05:58:00,58.2,55.9,29.79,SW,218,2.0,3.0,92,0.00,,,0.00,WeatherTracker,2013-09-08 12:58:00,
2013-09-08 06:03:00,58.2,55.9,29.79,SW,219,0.0,3.0,92,0.00,,,0.00,WeatherTracker,2013-09-08 13:03:00,
2013-09-08 06:08:00,58.2,55.9,29.79,SW,219,0.0,3.0,92,0.00,,,0.00,WeatherTracker,2013-09-08 13:08:00,
2013-09-08 06:13:00,58.1,55.8,29.79,SW,219,0.0,2.0,92,0.00,,,0.00,WeatherTracker,2013-09-08 13:13:00,
2013-09-08 06:18:00,58.1,55.8,29.79,SW,219,2.0,4.0,92,0.00,,,0.00,WeatherTracker,2013-09-08 13:18:00,
2013-09-08 06:23:00,58.2,55.9,29.79,SW,219,0.0,4.0,92,0.00,,,0.00,WeatherTracker,2013-09-08 13:23:00,
2013-09-08 06:28:00,58.3,56.0,29.79,SW,219,0.0,4.0,92,0.00,,,0.00,WeatherTracker,2013-09-08 13:28:00,
2013-09-08 06:33:00,58.4,56.1,29.80,SW,219,0.0,1.0,92,0.00,,,0.00,WeatherTracker,2013-09-08 13:33:00,
2013-09-08 06:38:00,58.3,56.0,29.80,SW,219,0.0,1.0,92,0.00,,,0.00,WeatherTracker,2013-09-08 13:38:00,
2013-09-08 06:43:00,58.2,55.9,29.80,SW,219,0.0,3.0,92,0.00,,,0.00,WeatherTracker,2013-09-08 13:43:00,
2013-09-08 06:48:00,58.1,55.8,29.80,SW,219,0.0,3.0,92,0.00,,,0.00,WeatherTracker,2013-09-08 13:48:00,
2013-09-08 06:53:00,58.0,55.7,29.80,SW,219,0.0,3.0,92,0.00,,,0.00,WeatherTracker,2013-09-08 13:53:00,
2013-09-08 06:58:00,58.0,55.7,29.80,SW,219,0.0,1.0,92,0.00,,,0.00,WeatherTracker,2013-09-08 13:58:00,
2013-09-08 07:03:00,58.1,55.8,29.80,SW,219,0.0,0.0,92,0.00,,,0.00,WeatherTracker,2013-09-08 14:03:00,
2013-09-08 07:09:00,58.2,55.9,29.80,SW,219,0.0,1.0,92,0.00,,,0.00,WeatherTracker,2013-09-08 14:09:00,
2013-09-08 07:14:00,58.4,56.4,29.81,SW,219,2.0,3.0,93,0.00,,,0.00,WeatherTracker,2013-09-08 14:14:00,
2013-09-08 07:19:00,58.5,56.5,29.81,SW,218,2.0,4.0,93,0.00,,,0.00,WeatherTracker,2013-09-08 14:19:00,
2013-09-08 07:24:00,58.4,56.4,29.81,SW,218,1.0,4.0,93,0.00,,,0.00,WeatherTracker,2013-09-08 14:24:00,
2013-09-08 07:29:00,58.4,56.4,29.81,SW,218,2.0,4.0,93,0.00,,,0.00,WeatherTracker,2013-09-08 14:29:00,
2013-09-08 07:34:00,58.5,56.5,29.81,SW,218,0.0,4.0,93,0.00,,,0.00,WeatherTracker,2013-09-08 14:34:00,
2013-09-08 07:39:00,58.6,56.6,29.81,SW,219,2.0,4.0,93,0.00,,,0.00,WeatherTracker,2013-09-08 14:39:00,
2013-09-08 07:44:00,58.7,56.7,29.81,SW,221,1.0,4.0,93,0.00,,,0.00,WeatherTracker,2013-09-08 14:44:00,
2013-09-08 07:49:00,59.1,57.1,29.81,NNW,336,5.0,6.0,93,0.00,,,0.00,WeatherTracker,2013-09-08 14:49:00,
2013-09-08 07:54:00,59.3,57.3,29.81,NNW,336,4.0,6.0,93,0.00,,,0.00,WeatherTracker,2013-09-08 14:54:00,
2013-09-08 07:59:00,59.3,57.0,29.81,NNW,333,3.0,6.0,92,0.00,,,0.00,WeatherTracker,2013-09-08 14:59:00,
2013-09-08 08:04:00,59.6,57.3,29.81,NNW,333,1.0,6.0,92,0.00,,,0.00,WeatherTracker,2013-09-08 15:04:00,
2013-09-08 08:09:00,59.9,57.6,29.81,NNW,333,2.0,4.0,92,0.00,,,0.00,WeatherTracker,2013-09-08 15:09:00,
2013-09-08 08:14:00,60.3,58.0,29.81,NNW,333,2.0,3.0,92,0.00,,,0.00,WeatherTracker,2013-09-08 15:14:00,
2013-09-08 08:19:00,60.5,57.9,29.81,NNW,333,2.0,3.0,91,0.00,,,0.00,WeatherTracker,2013-09-08 15:19:00,
2013-09-08 08:24:00,60.5,57.5,29.81,NNW,333,2.0,3.0,90,0.00,,,0.00,WeatherTracker,2013-09-08 15:24:00,
2013-09-08 08:29:00,60.8,57.8,29.81,NNW,333,2.0,4.0,90,0.00,,,0.00,WeatherTracker,2013-09-08 15:29:00,
2013-09-08 08:34:00,60.9,57.9,29.81,NNW,333,3.0,5.0,90,0.00,,,0.00,WeatherTracker,2013-09-08 15:34:00,
2013-09-08 08:39:00,60.9,57.9,29.81,NNW,333,2.0,5.0,90,0.00,,,0.00,WeatherTracker,2013-09-08 15:39:00,
2013-09-08 08:44:00,60.9,57.6,29.81,NNW,333,2.0,4.0,89,0.00,,,0.00,WeatherTracker,2013-09-08 15:44:00,
2013-09-08 08:49:00,60.9,57.6,29.81,NNW,333,2.0,4.0,89,0.00,,,0.00,WeatherTracker,2013-09-08 15:49:00,
2013-09-08 08:54:00,60.9,57.9,29.81,NNW,333,1.0,4.0,90,0.00,,,0.00,WeatherTracker,2013-09-08 15:54:00,
2013-09-08 08:59:00,61.1,57.8,29.81,NNW,333,2.0,3.0,89,0.00,,,0.00,WeatherTracker,2013-09-08 15:59:00,
2013-09-08 09:04:00,61.2,57.9,29.81,NNW,333,2.0,4.0,89,0.00,,,0.00,WeatherTracker,2013-09-08 16:04:00,
2013-09-08 09:09:00,61.2,57.6,29.81,NNW,333,2.0,4.0,88,0.00,,,0.00,WeatherTracker,2013-09-08 16:09:00,
2013-09-08 09:14:00,61.1,57.8,29.81,NNW,333,2.0,4.0,89,0.00,,,0.00,WeatherTracker,2013-09-08 16:14:00,
2013-09-08 09:20:00,61.1,57.8,29.81,NNW,333,2.0,4.0,89,0.00,,,0.00,WeatherTracker,2013-09-08 16:20:00,
2013-09-08 09:25:00,61.3,58.0,29.81,NNW,333,1.0,4.0,89,0.00,,,0.00,WeatherTracker,2013-09-08 16:25:00,
2013-09-08 09:30:00,61.3,58.0,29.81,NNW,333,1.0,3.0,89,0.00,,,0.00,WeatherTracker,2013-09-08 16:30:00,
2013-09-08 09:35:00,61.6,58.3,29.81,NNW,333,1.0,3.0,89,0.00,,,0.00,WeatherTracker,2013-09-08 16:35:00,
2013-09-08 09:40:00,61.8,58.2,29.81,NNW,334,3.0,3.0,88,0.00,,,0.00,WeatherTracker,2013-09-08 16:40:00,
2013-09-08 09:45:00,61.8,58.5,29.82,NNW,333,0.0,3.0,89,0.00,,,0.00,WeatherTracker,2013-09-08 16:45:00,
2013-09-08 09:50:00,62.1,58.5,29.82,NNW,333,0.0,3.0,88,0.00,,,0.00,WeatherTracker,2013-09-08 16:50:00,
2013-09-08 09:55:00,62.3,58.7,29.82,NNW,333,0.0,2.0,88,0.00,,,0.00,WeatherTracker,2013-09-08 16:55:00,
2013-09-08 10:00:00,62.3,58.4,29.82,NNW,333,1.0,3.0,87,0.00,,,0.00,WeatherTracker,2013-09-08 17:00:00,
2013-09-08 10:05:00,62.3,58.4,29.82,NNW,333,2.0,3.0,87,0.00,,,0.00,WeatherTracker,2013-09-08 17:05:00,
2013-09-08 10:10:00,62.1,58.5,29.82,NNW,345,1.0,4.0,88,0.00,,,0.00,WeatherTracker,2013-09-08 17:10:00,
2013-09-08 10:15:00,62.5,58.9,29.81,North,355,2.0,4.0,88,0.00,,,0.00,WeatherTracker,2013-09-08 17:15:00,
2013-09-08 10:20:00,62.9,59.0,29.81,North,355,1.0,4.0,87,0.00,,,0.00,WeatherTracker,2013-09-08 17:20:00,
2013-09-08 10:25:00,63.5,59.6,29.81,North,355,3.0,3.0,87,0.00,,,0.00,WeatherTracker,2013-09-08 17:25:00,
2013-09-08 10:30:00,63.7,59.4,29.81,North,360,3.0,4.0,86,0.00,,,0.00,WeatherTracker,2013-09-08 17:30:00,
2013-09-08 10:35:00,63.8,59.2,29.81,North,360,2.0,4.0,85,0.00,,,0.00,WeatherTracker,2013-09-08 17:35:00,
2013-09-08 10:40:00,64.0,59.4,29.81,North,360,2.0,3.0,85,0.00,,,0.00,WeatherTracker,2013-09-08 17:40:00,
2013-09-08 10:46:00,64.2,59.6,29.81,North,360,2.0,3.0,85,0.00,,,0.00,WeatherTracker,2013-09-08 17:46:00,
2013-09-08 10:51:00,64.6,59.7,29.81,North,360,2.0,3.0,84,0.00,,,0.00,WeatherTracker,2013-09-08 17:51:00,
2013-09-08 10:56:00,64.9,59.9,29.81,North,360,2.0,3.0,84,0.00,,,0.00,WeatherTracker,2013-09-08 17:56:00,
2013-09-08 11:01:00,64.6,59.7,29.81,East,101,3.0,4.0,84,0.00,,,0.00,WeatherTracker,2013-09-08 18:01:00,
2013-09-08 11:06:00,64.2,59.3,29.81,ESE,102,2.0,5.0,84,0.00,,,0.00,WeatherTracker,2013-09-08 18:06:00,
2013-09-08 11:11:00,64.4,59.5,29.81,ESE,102,3.0,5.0,84,0.00,,,0.00,WeatherTracker,2013-09-08 18:11:00,
2013-09-08 11:16:00,64.6,59.7,29.80,ESE,102,2.0,5.0,84,0.00,,,0.00,WeatherTracker,2013-09-08 18:16:00,
2013-09-08 11:21:00,64.9,59.6,29.80,ESE,102,4.0,4.0,83,0.00,,,0.00,WeatherTracker,2013-09-08 18:21:00,
2013-09-08 11:26:00,65.5,59.9,29.80,ESE,102,2.0,4.0,82,0.00,,,0.00,WeatherTracker,2013-09-08 18:26:00,
2013-09-08 11:31:00,65.8,60.1,29.80,ESE,102,4.0,5.0,82,0.00,,,0.00,WeatherTracker,2013-09-08 18:31:00,
2013-09-08 11:36:00,65.8,60.1,29.80,ESE,102,3.0,5.0,82,0.00,,,0.00,WeatherTracker,2013-09-08 18:36:00,
2013-09-08 11:41:00,65.6,60.3,29.80,ESE,102,2.0,5.0,83,0.00,,,0.00,WeatherTracker,2013-09-08 18:41:00,
2013-09-08 11:46:00,65.6,60.3,29.79,ESE,102,3.0,3.0,83,0.00,,,0.00,WeatherTracker,2013-09-08 18:46:00,
2013-09-08 11:51:00,66.1,60.8,29.79,ESE,102,1.0,3.0,83,0.00,,,0.00,WeatherTracker,2013-09-08 18:51:00,
2013-09-08 11:56:00,66.1,60.4,29.79,ESE,102,1.0,3.0,82,0.00,,,0.00,WeatherTracker,2013-09-08 18:56:00,
2013-09-08 12:01:00,66.0,60.3,29.79,ESE,102,3.0,4.0,82,0.00,,,0.00,WeatherTracker,2013-09-08 19:01:00,
2013-09-08 12:06:00,66.4,60.7,29.79,ESE,102,3.0,4.0,82,0.00,,,0.00,WeatherTracker,2013-09-08 19:06:00,
2013-09-08 12:12:00,66.5,60.8,29.79,ESE,102,4.0,4.0,82,0.00,,,0.00,WeatherTracker,2013-09-08 19:12:00,
2013-09-08 12:17:00,66.6,60.2,29.79,East,99,1.0,5.0,80,0.00,,,0.00,WeatherTracker,2013-09-08 19:17:00,
2013-09-08 12:22:00,66.9,60.2,29.79,East,98,1.0,5.0,79,0.00,,,0.00,WeatherTracker,2013-09-08 19:22:00,
2013-09-08 12:27:00,67.2,60.5,29.79,East,98,0.0,4.0,79,0.00,,,0.00,WeatherTracker,2013-09-08 19:27:00,
2013-09-08 12:32:00,67.7,60.6,29.79,East,97,3.0,4.0,78,0.00,,,0.00,WeatherTracker,2013-09-08 19:32:00,
2013-09-08 12:37:00,67.5,60.4,29.79,East,96,3.0,4.0,78,0.00,,,0.00,WeatherTracker,2013-09-08 19:37:00,
2013-09-08 12:42:00,67.4,59.9,29.79,East,96,3.0,4.0,77,0.00,,,0.00,WeatherTracker,2013-09-08 19:42:00,
2013-09-08 12:47:00,67.5,60.0,29.78,East,95,2.0,4.0,77,0.00,,,0.00,WeatherTracker,2013-09-08 19:47:00,
2013-09-08 12:52:00,67.6,60.1,29.78,East,95,2.0,3.0,77,0.00,,,0.00,WeatherTracker,2013-09-08 19:52:00,
2013-09-08 12:57:00,68.1,60.6,29.78,East,96,1.0,4.0,77,0.00,,,0.00,WeatherTracker,2013-09-08 19:57:00,
2013-09-08 13:02:00,68.6,60.4,29.78,East,96,1.0,4.0,75,0.00,,,0.00,WeatherTracker,2013-09-08 20:02:00,
2013-09-08 13:07:00,68.5,60.3,29.78,East,96,2.0,3.0,75,0.00,,,0.00,WeatherTracker,2013-09-08 20:07:00,
2013-09-08 13:13:00,68.5,60.3,29.78,East,95,3.0,4.0,75,0.00,,,0.00,WeatherTracker,2013-09-08 20:13:00,
2013-09-08 13:18:00,69.1,60.5,29.77,SSE,159,5.0,7.0,74,0.00,,,0.00,WeatherTracker,2013-09-08 20:18:00,
2013-09-08 13:23:00,69.2,60.2,29.77,East,92,4.0,9.0,73,0.00,,,0.00,WeatherTracker,2013-09-08 20:23:00,
2013-09-08 13:28:00,69.3,60.6,29.77,ESE,119,0.0,9.0,74,0.00,,,0.00,WeatherTracker,2013-09-08 20:28:00,
2013-09-08 13:33:00,69.8,60.7,29.76,NE,53,3.0,9.0,73,0.00,,,0.00,WeatherTracker,2013-09-08 20:33:00,
2013-09-08 13:38:00,70.2,60.7,29.76,NE,53,3.0,6.0,72,0.00,,,0.00,WeatherTracker,2013-09-08 20:38:00,
2013-09-08 13:43:00,70.1,60.6,29.76,NE,51,4.0,5.0,72,0.00,,,0.00,WeatherTracker,2013-09-08 20:43:00,
2013-09-08 13:48:00,69.8,60.7,29.76,NE,51,3.0,5.0,73,0.00,,,0.00,WeatherTracker,2013-09-08 20:48:00,
2013-09-08 13:53:00,69.8,60.7,29.76,NE,51,3.0,4.0,73,0.00,,,0.00,WeatherTracker,2013-09-08 20:53:00,
2013-09-08 13:58:00,69.8,60.7,29.76,NE,51,2.0,4.0,73,0.00,,,0.00,WeatherTracker,2013-09-08 20:58:00,
2013-09-08 14:03:00,69.9,60.8,29.76,NE,51,1.0,3.0,73,0.00,,,0.00,WeatherTracker,2013-09-08 21:03:00,
2013-09-08 14:08:00,70.1,61.0,29.76,NE,51,1.0,3.0,73,0.00,,,0.00,WeatherTracker,2013-09-08 21:08:00,
2013-09-08 14:13:00,70.2,60.7,29.76,NE,51,4.0,5.0,72,0.00,,,0.00,WeatherTracker,2013-09-08 21:13:00,
2013-09-08 14:18:00,70.0,60.2,29.75,NE,51,0.0,5.0,71,0.00,,,0.00,WeatherTracker,2013-09-08 21:18:00,
2013-09-08 14:23:00,70.5,61.0,29.75,NE,51,2.0,5.0,72,0.00,,,0.00,WeatherTracker,2013-09-08 21:23:00,
2013-09-08 14:28:00,71.4,60.7,29.75,SE,140,3.0,4.0,69,0.00,,,0.00,WeatherTracker,2013-09-08 21:28:00,
2013-09-08 14:33:00,71.4,60.7,29.75,SE,140,3.0,5.0,69,0.00,,,0.00,WeatherTracker,2013-09-08 21:33:00,
2013-09-08 14:38:00,71.4,61.1,29.75,SE,140,0.0,5.0,70,0.00,,,0.00,WeatherTracker,2013-09-08 21:38:00,
2013-09-08 14:43:00,71.4,60.7,29.75,SE,140,2.0,4.0,69,0.00,,,0.00,WeatherTracker,2013-09-08 21:43:00,
2013-09-08 14:48:00,70.9,60.2,29.74,SE,140,4.0,5.0,69,0.00,,,0.00,WeatherTracker,2013-09-08 21:48:00,
2013-09-08 14:53:00,70.6,60.3,29.74,SE,142,2.0,7.0,70,0.00,,,0.00,WeatherTracker,2013-09-08 21:53:00,
2013-09-08 14:58:00,70.6,60.3,29.74,SE,141,1.0,7.0,70,0.00,,,0.00,WeatherTracker,2013-09-08 21:58:00,
2013-09-08 15:03:00,70.8,60.1,29.74,SE,142,0.0,5.0,69,0.00,,,0.00,WeatherTracker,2013-09-08 22:03:00,
2013-09-08 15:09:00,70.8,60.1,29.74,SE,142,3.0,4.0,69,0.00,,,0.00,WeatherTracker,2013-09-08 22:09:00,
2013-09-08 15:14:00,70.8,60.1,29.73,SE,141,4.0,4.0,69,0.00,,,0.00,WeatherTracker,2013-09-08 22:14:00,
2013-09-08 15:19:00,70.7,60.0,29.73,SE,140,2.0,5.0,69,0.00,,,0.00,WeatherTracker,2013-09-08 22:19:00,
2013-09-08 15:24:00,70.8,60.1,29.73,SE,140,2.0,5.0,69,0.00,,,0.00,WeatherTracker,2013-09-08 22:24:00,
2013-09-08 15:29:00,70.4,60.1,29.73,SE,140,4.0,4.0,70,0.00,,,0.00,WeatherTracker,2013-09-08 22:29:00,
2013-09-08 15:34:00,70.4,60.1,29.73,SE,141,1.0,4.0,70,0.00,,,0.00,WeatherTracker,2013-09-08 22:34:00,
2013-09-08 15:39:00,70.7,60.0,29.73,SE,140,0.0,5.0,69,0.00,,,0.00,WeatherTracker,2013-09-08 22:39:00,
2013-09-08 15:44:00,70.8,59.7,29.72,SE,140,2.0,5.0,68,0.00,,,0.00,WeatherTracker,2013-09-08 22:44:00,
2013-09-08 15:49:00,70.8,60.1,29.72,SE,140,2.0,4.0,69,0.00,,,0.00,WeatherTracker,2013-09-08 22:49:00,
2013-09-08 15:54:00,70.7,60.0,29.72,SE,140,0.0,4.0,69,0.00,,,0.00,WeatherTracker,2013-09-08 22:54:00,
2013-09-08 15:59:00,71.0,60.3,29.71,SE,140,1.0,3.0,69,0.00,,,0.00,WeatherTracker,2013-09-08 22:59:00,
2013-09-08 16:04:00,71.2,60.1,29.71,SE,140,1.0,2.0,68,0.00,,,0.00,WeatherTracker,2013-09-08 23:04:00,
2013-09-08 16:09:00,71.0,60.3,29.71,SE,140,1.0,3.0,69,0.00,,,0.00,WeatherTracker,2013-09-08 23:09:00,
2013-09-08 16:14:00,71.1,60.4,29.71,SE,140,0.0,3.0,69,0.00,,,0.00,WeatherTracker,2013-09-08 23:14:00,
2013-09-08 16:19:00,71.1,60.4,29.71,SE,140,1.0,2.0,69,0.00,,,0.00,WeatherTracker,2013-09-08 23:19:00,
2013-09-08 16:24:00,71.0,60.3,29.71,SE,140,1.0,2.0,69,0.00,,,0.00,WeatherTracker,2013-09-08 23:24:00,
2013-09-08 16:29:00,71.2,60.1,29.70,SE,140,1.0,3.0,68,0.00,,,0.00,WeatherTracker,2013-09-08 23:29:00,
2013-09-08 16:35:00,71.0,59.9,29.70,ESE,105,4.0,6.0,68,0.00,,,0.00,WeatherTracker,2013-09-08 23:35:00,
2013-09-08 16:40:00,70.9,59.8,29.70,SE,129,3.0,8.0,68,0.00,,,0.00,WeatherTracker,2013-09-08 23:40:00,
2013-09-08 16:45:00,70.8,59.3,29.70,SE,128,2.0,8.0,67,0.00,,,0.00,WeatherTracker,2013-09-08 23:45:00,
2013-09-08 16:50:00,70.5,59.4,29.70,SE,144,3.0,6.0,68,0.00,,,0.00,WeatherTracker,2013-09-08 23:50:00,
2013-09-08 16:55:00,70.1,59.0,29.70,SE,146,1.0,9.0,68,0.00,,,0.00,WeatherTracker,2013-09-08 23:55:00,
2013-09-08 17:00:00,70.3,58.8,29.70,SE,146,4.0,9.0,67,0.00,,,0.00,WeatherTracker,2013-09-09 00:00:00,
2013-09-08 17:05:00,70.4,58.9,29.70,SE,146,5.0,5.0,67,0.00,,,0.00,WeatherTracker,2013-09-09 00:05:00,
2013-09-08 17:10:00,70.2,58.7,29.70,SSE,150,3.0,5.0,67,0.00,,,0.00,WeatherTracker,2013-09-09 00:10:00,
2013-09-08 17:15:00,69.9,58.4,29.70,SSE,148,1.0,6.0,67,0.00,,,0.00,WeatherTracker,2013-09-09 00:15:00,
2013-09-08 17:20:00,69.8,58.3,29.70,SE,146,1.0,6.0,67,0.00,,,0.00,WeatherTracker,2013-09-09 00:20:00,
2013-09-08 17:25:00,69.6,58.6,29.70,SE,146,2.0,5.0,68,0.00,,,0.00,WeatherTracker,2013-09-09 00:25:00,
2013-09-08 17:30:00,69.1,58.1,29.70,SSE,168,4.0,5.0,68,0.00,,,0.00,WeatherTracker,2013-09-09 00:30:00,
2013-09-08 17:35:00,68.3,57.7,29.70,SSE,161,4.0,10.0,69,0.00,,,0.00,WeatherTracker,2013-09-09 00:35:00,
2013-09-08 17:40:00,66.9,57.2,29.70,SSE,151,9.0,10.0,71,0.00,,,0.00,WeatherTracker,2013-09-09 00:40:00,
2013-09-08 17:45:00,66.1,57.6,29.70,South,171,4.0,12.0,74,0.00,,,0.00,WeatherTracker,2013-09-09 00:45:00,
2013-09-08 17:50:00,66.4,57.9,29.70,South,171,2.0,12.0,74,0.00,,,0.00,WeatherTracker,2013-09-09 00:50:00,
2013-09-08 17:55:00,66.5,57.9,29.70,South,170,2.0,6.0,74,0.00,,,0.00,WeatherTracker,2013-09-09 00:55:00,
2013-09-08 18:00:00,66.5,57.9,29.70,South,170,2.0,5.0,74,0.00,,,0.00,WeatherTracker,2013-09-09 01:00:00,
2013-09-08 18:05:00,66.5,57.9,29.70,South,170,0.0,4.0,74,0.00,,,0.00,WeatherTracker,2013-09-09 01:05:00,
2013-09-08 18:11:00,66.5,57.9,29.70,South,170,1.0,4.0,74,0.00,,,0.00,WeatherTracker,2013-09-09 01:11:00,
2013-09-08 18:16:00,66.4,57.9,29.70,South,169,0.0,4.0,74,0.00,,,0.00,WeatherTracker,2013-09-09 01:16:00,
2013-09-08 18:21:00,66.3,57.8,29.70,SSE,164,6.0,6.0,74,0.00,,,0.00,WeatherTracker,2013-09-09 01:21:00,
2013-09-08 18:26:00,66.0,57.8,29.70,SE,140,6.0,6.0,75,0.00,,,0.00,WeatherTracker,2013-09-09 01:26:00,
2013-09-08 18:31:00,65.8,57.6,29.69,SE,144,2.0,6.0,75,0.00,,,0.00,WeatherTracker,2013-09-09 01:31:00,
2013-09-08 18:36:00,65.7,57.6,29.69,SE,144,2.0,6.0,75,0.00,,,0.00,WeatherTracker,2013-09-09 01:36:00,
2013-09-08 18:41:00,65.6,57.5,29.69,SE,144,4.0,5.0,75,0.00,,,0.00,WeatherTracker,2013-09-09 01:41:00,
2013-09-08 18:46:00,65.4,57.6,29.69,SE,146,3.0,5.0,76,0.00,,,0.00,WeatherTracker,2013-09-09 01:46:00,
2013-09-08 18:51:00,65.3,57.5,29.69,SSE,147,2.0,5.0,76,0.00,,,0.00,WeatherTracker,2013-09-09 01:51:00,
2013-09-08 18:56:00,65.2,57.8,29.69,SE,146,0.0,5.0,77,0.00,,,0.00,WeatherTracker,2013-09-09 01:56:00,
2013-09-08 19:01:00,65.1,57.7,29.69,SSE,147,1.0,3.0,77,0.00,,,0.00,WeatherTracker,2013-09-09 02:01:00,
2013-09-08 19:06:00,64.9,57.5,29.69,SSE,147,0.0,3.0,77,0.00,,,0.00,WeatherTracker,2013-09-09 02:06:00,
2013-09-08 19:11:00,64.8,57.4,29.69,SE,146,2.0,3.0,77,0.00,,,0.00,WeatherTracker,2013-09-09 02:11:00,
2013-09-08 19:16:00,64.6,57.6,29.70,SSE,147,0.0,3.0,78,0.00,,,0.00,WeatherTracker,2013-09-09 02:16:00,
2013-09-08 19:21:00,64.7,57.7,29.70,SE,146,3.0,3.0,78,0.00,,,0.00,WeatherTracker,2013-09-09 02:21:00,
2013-09-08 19:26:00,64.5,57.5,29.70,SSE,147,2.0,4.0,78,0.00,,,0.00,WeatherTracker,2013-09-09 02:26:00,
2013-09-08 19:31:00,64.4,57.4,29.70,SSE,147,2.0,4.0,78,0.00,,,0.00,WeatherTracker,2013-09-09 02:31:00,
2013-09-08 19:36:00,64.2,57.2,29.70,SSE,147,1.0,4.0,78,0.00,,,0.00,WeatherTracker,2013-09-09 02:36:00,
2013-09-08 19:42:00,64.3,57.3,29.70,SE,125,4.0,4.0,78,0.00,,,0.00,WeatherTracker,2013-09-09 02:42:00,
2013-09-08 19:47:00,64.1,57.1,29.70,ENE,78,7.0,7.0,78,0.00,,,0.00,WeatherTracker,2013-09-09 02:47:00,
2013-09-08 19:52:00,64.4,58.4,29.70,NE,49,6.0,8.0,81,0.00,,,0.00,WeatherTracker,2013-09-09 02:52:00,
2013-09-08 19:57:00,64.2,57.9,29.70,NE,36,1.0,8.0,80,0.00,,,0.00,WeatherTracker,2013-09-09 02:57:00,
2013-09-08 20:02:00,64.2,57.9,29.70,NE,53,2.0,6.0,80,0.00,,,0.00,WeatherTracker,2013-09-09 03:02:00,
2013-09-08 20:07:00,64.3,58.0,29.70,ESE,121,3.0,5.0,80,0.00,,,0.00,WeatherTracker,2013-09-09 03:07:00,
2013-09-08 20:12:00,63.8,57.5,29.70,SE,136,3.0,5.0,80,0.00,,,0.00,WeatherTracker,2013-09-09 03:12:00,
2013-09-08 20:17:00,63.4,57.5,29.70,SE,137,2.0,5.0,81,0.00,,,0.00,WeatherTracker,2013-09-09 03:17:00,
2013-09-08 20:22:00,63.2,57.6,29.70,SE,137,4.0,5.0,82,0.00,,,0.00,WeatherTracker,2013-09-09 03:22:00,
2013-09-08 20:27:00,63.0,57.4,29.70,SE,141,3.0,7.0,82,0.00,,,0.00,WeatherTracker,2013-09-09 03:27:00,
2013-09-08 20:32:00,62.7,57.5,29.70,ESE,121,1.0,7.0,83,0.00,,,0.00,WeatherTracker,2013-09-09 03:32:00,
2013-09-08 20:37:00,62.6,57.4,29.70,ESE,122,2.0,5.0,83,0.00,,,0.00,WeatherTracker,2013-09-09 03:37:00,
2013-09-08 20:42:00,62.6,57.4,29.70,ESE,113,2.0,6.0,83,0.00,,,0.00,WeatherTracker,2013-09-09 03:42:00,
2013-09-08 20:47:00,62.8,57.9,29.71,NE,53,5.0,6.0,84,0.00,,,0.00,WeatherTracker,2013-09-09 03:47:00,
2013-09-08 20:52:00,62.5,57.6,29.71,NE,49,6.0,8.0,84,0.00,,,0.00,WeatherTracker,2013-09-09 03:52:00,
2013-09-08 20:57:00,62.3,57.7,29.71,NE,49,3.0,8.0,85,0.00,,,0.00,WeatherTracker,2013-09-09 03:57:00,
2013-09-08 21:01:00,62.2,57.6,29.71,NE,49,1.0,8.0,85,0.00,,,0.00,WeatherTracker,2013-09-09 04:01:00,
2013-09-08 21:02:00,62.2,57.6,29.71,ENE,58,4.0,8.0,85,0.00,,,0.00,WeatherTracker,2013-09-09 04:02:00,
2013-09-08 21:06:00,62.2,57.6,29.71,ENE,57,7.0,7.0,85,0.00,,,0.00,WeatherTracker,2013-09-09 04:06:00,
2013-09-08 21:11:00,62.0,57.8,29.71,ENE,57,3.0,7.0,86,0.00,,,0.00,WeatherTracker,2013-09-09 04:11:00,
2013-09-08 21:16:00,61.7,57.5,29.72,ENE,57,0.0,7.0,86,0.00,,,0.00,WeatherTracker,2013-09-09 04:16:00,
2013-09-08 21:21:00,61.7,57.5,29.72,NE,55,4.0,5.0,86,0.00,,,0.00,WeatherTracker,2013-09-09 04:21:00,
2013-09-08 21:27:00,61.7,57.8,29.72,NNE,28,4.0,6.0,87,0.00,,,0.00,WeatherTracker,2013-09-09 04:27:00,
2013-09-08 21:32:00,61.8,57.9,29.72,NNE,28,3.0,6.0,87,0.00,,,0.00,WeatherTracker,2013-09-09 04:32:00,
2013-09-08 21:37:00,61.7,57.8,29.72,NNE,28,2.0,6.0,87,0.00,,,0.00,WeatherTracker,2013-09-09 04:37:00,
2013-09-08 21:42:00,61.6,57.7,29.72,NNE,28,2.0,5.0,87,0.00,,,0.00,WeatherTracker,2013-09-09 04:42:00,
2013-09-08 21:47:00,61.3,57.4,29.71,NNE,28,3.0,4.0,87,0.00,,,0.00,WeatherTracker,2013-09-09 04:47:00,
2013-09-08 21:52:00,61.3,57.4,29.71,NNE,28,3.0,5.0,87,0.00,,,0.00,WeatherTracker,2013-09-09 04:52:00,
2013-09-08 21:57:00,61.1,57.2,29.71,NNE,28,1.0,5.0,87,0.00,,,0.00,WeatherTracker,2013-09-09 04:57:00,
2013-09-08 22:02:00,61.0,57.1,29.72,NNE,28,3.0,4.0,87,0.00,,,0.00,WeatherTracker,2013-09-09 05:02:00,
2013-09-08 22:07:00,60.9,57.3,29.72,NNE,28,0.0,4.0,88,0.00,,,0.00,WeatherTracker,2013-09-09 05:07:00,
2013-09-08 22:12:00,60.8,57.2,29.72,NNE,28,0.0,4.0,88,0.00,,,0.00,WeatherTracker,2013-09-09 05:12:00,
2013-09-08 22:17:00,60.7,57.1,29.72,NNE,28,0.0,1.0,88,0.00,,,0.00,WeatherTracker,2013-09-09 05:17:00,
2013-09-08 22:22:00,60.7,57.1,29.72,NNE,30,4.0,4.0,88,0.00,,,0.00,WeatherTracker,2013-09-09 05:22:00,
2013-09-08 22:27:00,60.6,57.0,29.72,NNE,30,1.0,4.0,88,0.00,,,0.00,WeatherTracker,2013-09-09 05:27:00,
2013-09-08 22:33:00,60.6,57.0,29.72,NNE,30,2.0,4.0,88,0.00,,,0.00,WeatherTracker,2013-09-09 05:33:00,
2013-09-08 22:38:00,60.6,57.0,29.72,NNE,31,3.0,4.0,88,0.00,,,0.00,WeatherTracker,2013-09-09 05:38:00,
2013-09-08 22:43:00,60.6,57.0,29.72,NNE,31,3.0,4.0,88,0.00,,,0.00,WeatherTracker,2013-09-09 05:43:00,
2013-09-08 22:48:00,60.6,57.3,29.72,NNE,30,2.0,5.0,89,0.00,,,0.00,WeatherTracker,2013-09-09 05:48:00,
2013-09-08 22:53:00,60.5,56.9,29.72,NNE,30,1.0,5.0,88,0.00,,,0.00,WeatherTracker,2013-09-09 05:53:00,
2013-09-08 22:58:00,60.4,57.1,29.72,NNE,31,0.0,4.0,89,0.00,,,0.00,WeatherTracker,2013-09-09 05:58:00,
2013-09-08 23:03:00,60.4,57.1,29.72,NNE,31,0.0,3.0,89,0.00,,,0.00,WeatherTracker,2013-09-09 06:03:00,
2013-09-08 23:08:00,60.4,57.1,29.72,NNE,31,0.0,2.0,89,0.00,,,0.00,WeatherTracker,2013-09-09 06:08:00,
2013-09-08 23:13:00,60.4,57.1,29.72,NNE,30,0.0,2.0,89,0.00,,,0.00,WeatherTracker,2013-09-09 06:13:00,
2013-09-08 23:18:00,60.5,57.2,29.73,East,89,2.0,3.0,89,0.00,,,0.00,WeatherTracker,2013-09-09 06:18:00,
2013-09-08 23:23:00,60.3,57.0,29.73,ESE,114,2.0,3.0,89,0.00,,,0.00,WeatherTracker,2013-09-09 06:23:00,
2013-09-08 23:28:00,60.2,56.9,29.73,ESE,114,4.0,4.0,89,0.00,,,0.00,WeatherTracker,2013-09-09 06:28:00,
2013-09-08 23:33:00,60.0,56.4,29.73,ESE,118,0.0,4.0,88,0.00,,,0.00,WeatherTracker,2013-09-09 06:33:00,
2013-09-08 23:38:00,60.0,56.7,29.73,ENE,72,5.0,5.0,89,0.00,,,0.00,WeatherTracker,2013-09-09 06:38:00,
2013-09-08 23:43:00,60.1,56.5,29.73,ENE,63,5.0,6.0,88,0.00,,,0.00,WeatherTracker,2013-09-09 06:43:00,
2013-09-08 23:48:00,60.1,56.5,29.73,NE,48,5.0,8.0,88,0.00,,,0.00,WeatherTracker,2013-09-09 06:48:00,
2013-09-08 23:53:00,59.9,56.3,29.73,NE,47,4.0,8.0,88,0.00,,,0.00,WeatherTracker,2013-09-09 06:53:00,
2013-09-08 23:58:00,59.8,56.5,29.73,NE,47,2.0,6.0,89,0.00,,,0.00,WeatherTracker,2013-09-09 06:58:00,